Tracking 29090 objects as of 15-Jul-2024
HD Live streaming from Space Station
objects crossing your sky now

STARLINK-6316

Track STARLINK-6316 now!
10-day predictions
STARLINK-6316 is classified as:


NORAD ID: 57335
Int'l Code: 2023-099H
Perigee: 565.3 km
Apogee: 567.2 km
Inclination: 43.0 °
Period: 95.8 minutes
Semi major axis: 6937 km
RCS: Unknown
Launch date: July 16, 2023
Source: United States (US)
Launch site: AIR FORCE EASTERN TEST RANGE (AFETR)
Your satellite tracking list
Your tracking list is empty




NASA's NSSDC Master Catalog

Two Line Element Set (TLE):
1 57335U 23099H   24196.58452003  .00001575  00000-0  13167-3 0  9994
2 57335  43.0025 286.1101 0001380 267.2800  92.7884 15.02535168 55391
Source of the keplerian elements: AFSPC